Estación de San Diego

Ultimos registro cada 15 minutos 87
Estación Fecha / Hora Temperatura Humedad Lluvia Velocidad Dirección Radiación Presion
87 San Diego 06-05-2026 21:45 12,4 88 0 0 249 0 1020,8
86 San Diego 06-05-2026 21:30 12,2 89 0 0 220 0 1020,8
85 San Diego 06-05-2026 21:15 12,4 88 0 0 226 0 1020,8
84 San Diego 06-05-2026 20:45 12,8 87 0 0 191 0 1020,9
83 San Diego 06-05-2026 20:30 13,4 85 0 0 191 0 1020,7
82 San Diego 06-05-2026 20:15 13,7 83 0 0 180 0 1020,5
81 San Diego 06-05-2026 20:00 13,8 83 0 0,9 170 0 1020,5
80 San Diego 06-05-2026 19:45 13,8 84 0 0,4 145 0 1020,5
79 San Diego 06-05-2026 19:30 13,8 86 0 3,1 164 0 1020,7
78 San Diego 06-05-2026 19:15 14 86 0 1,3 159 0 1020,4
77 San Diego 06-05-2026 19:00 14,1 86 0 1,8 197 0 1020,2
76 San Diego 06-05-2026 18:45 14,1 87 0 0 119 0 1019,9
75 San Diego 06-05-2026 18:30 14,2 87 0 0,4 154 0 1019,7
74 San Diego 06-05-2026 18:15 14,3 86 0 0,9 183 0 1019,5
73 San Diego 06-05-2026 18:00 14,5 86 0 0,9 195 0 1019,2
72 San Diego 06-05-2026 17:45 14,7 86 0 1,8 198 5 1019,1
71 San Diego 06-05-2026 17:30 14,7 87 0 1,3 185 11 1019
70 San Diego 06-05-2026 17:15 14,7 87 0 0,9 178 25 1018,7
69 San Diego 06-05-2026 17:00 14,6 88 0 1,8 193 47 1018,8
68 San Diego 06-05-2026 16:45 14,9 86 0 2,7 176 60 1018,8
67 San Diego 06-05-2026 16:30 16,1 86 0 3,1 172 54 1018,8
66 San Diego 06-05-2026 16:15 16,1 85 0 0 211 118 1018,7
65 San Diego 06-05-2026 16:00 15,9 87 0 1,8 216 123 1018,7
64 San Diego 06-05-2026 15:45 15,8 91 0 1,8 221 272 1018,5
63 San Diego 06-05-2026 15:30 15,6 91 0 0 220 153 1018,2
62 San Diego 06-05-2026 15:15 15,8 92 0 2,2 181 216 1018,2
61 San Diego 06-05-2026 15:00 16,2 91 0 0,9 240 216 1018,1
60 San Diego 06-05-2026 14:45 16,3 90 0 2,2 309 169 1017,7
59 San Diego 06-05-2026 14:30 16,6 93 0 0 303 267 1017,6
58 San Diego 06-05-2026 14:15 16,8 92 0 0,4 314 190 1017,5
57 San Diego 06-05-2026 14:00 16,8 91 0 2,7 316 411 1017,3
56 San Diego 06-05-2026 13:45 16,4 92 0,6 4 286 188 1017,5
55 San Diego 06-05-2026 13:30 16,2 94 1,8 2,7 291 125 1017,5
54 San Diego 06-05-2026 13:15 15,9 93 0,4 0,9 284 54 1017,6
53 San Diego 06-05-2026 13:00 15,8 92 0 1,8 359 137 1017,4
52 San Diego 06-05-2026 12:45 15,6 92 0 2,2 304 90 1017,5
51 San Diego 06-05-2026 12:30 15,8 92 0,2 2,7 339 172 1017,3
50 San Diego 06-05-2026 12:15 15,4 93 1,4 2,7 337 390 1016,9
49 San Diego 06-05-2026 12:00 15,6 93 0,2 3,6 290 174 1017
48 San Diego 06-05-2026 11:45 15,6 92 0,2 0,9 326 214 1016,8
47 San Diego 06-05-2026 11:30 15,2 93 0,2 2,7 297 128 1016,7
46 San Diego 06-05-2026 11:15 14,8 95 0,8 2,2 290 209 1016,7
45 San Diego 06-05-2026 11:00 14,4 95 1,2 1,8 266 72 1016,9
44 San Diego 06-05-2026 10:45 14,3 96 1,6 1,8 314 49 1016,4
43 San Diego 06-05-2026 10:30 14,1 97 1,4 1,8 305 83 1016,4
42 San Diego 06-05-2026 10:15 12,7 96 0,6 0 164 91 1016,3
41 San Diego 06-05-2026 10:00 12,3 96 1,6 0 164 83 1016,1
40 San Diego 06-05-2026 09:45 12,2 96 2,4 0 164 18 1016
39 San Diego 06-05-2026 09:30 12 96 0 0,4 233 12 1015,7
38 San Diego 06-05-2026 09:15 11,8 97 0 0 318 107 1015,5
37 San Diego 06-05-2026 09:00 11,4 97 0 0 350 58 1015,7
36 San Diego 06-05-2026 08:45 11,2 97 0,2 0 314 76 1015,8
35 San Diego 06-05-2026 08:30 10,9 97 0 0 333 44 1015,9
34 San Diego 06-05-2026 08:15 10,8 97 0,4 0,4 282 32 1015,7
33 San Diego 06-05-2026 08:00 10,4 97 0,2 0 347 16 1015,7
32 San Diego 06-05-2026 07:45 10,2 97 0,2 0 278 46 1015,4
31 San Diego 06-05-2026 07:30 9,9 97 0,2 0 278 0 1015,4
30 San Diego 06-05-2026 07:15 9,3 96 0 0 281 0 1015,3
29 San Diego 06-05-2026 07:00 9,2 96 0 0 312 0 1015
28 San Diego 06-05-2026 06:45 9,1 96 0 0 299 0 1014,7
27 San Diego 06-05-2026 06:30 8,9 97 0 0 330 0 1014,3
26 San Diego 06-05-2026 06:15 8,9 97 0 0 301 0 1014,6
25 San Diego 06-05-2026 06:00 8,6 96 0 0 295 0 1014,5
24 San Diego 06-05-2026 05:45 8,3 97 0 0 295 0 1014,3
23 San Diego 06-05-2026 05:30 7,5 96 0 0 328 0 1014
22 San Diego 06-05-2026 05:15 7,2 96 0 0 287 0 1013,9
21 San Diego 06-05-2026 05:00 6,6 95 0 0 278 0 1013,9
20 San Diego 06-05-2026 04:45 6,9 95 0 0 308 0 1013,7
19 San Diego 06-05-2026 04:30 7 95 0 0,4 303 0 1013,8
18 San Diego 06-05-2026 04:15 7,3 96 0 0,4 332 0 1013,8
17 San Diego 06-05-2026 04:00 7,1 95 0 0 348 0 1013,7
16 San Diego 06-05-2026 03:45 7,3 96 0 0,9 341 0 1013,9
15 San Diego 06-05-2026 03:30 6,8 94 0 0 282 0 1013,8
14 San Diego 06-05-2026 03:15 7,1 95 0 0 282 0 1013,9
13 San Diego 06-05-2026 03:00 7,4 94 0 0 282 0 1014,1
12 San Diego 06-05-2026 02:45 7,8 94 0 0 282 0 1014,1
11 San Diego 06-05-2026 02:30 8 95 0 0 300 0 1014,1
10 San Diego 06-05-2026 02:15 7,5 94 0 0,4 307 0 1013,9
9 San Diego 06-05-2026 02:00 7,4 94 0 0 293 0 1014,1
8 San Diego 06-05-2026 01:45 7,3 93 0 0,4 293 0 1014,1
7 San Diego 06-05-2026 01:30 8 93 0 0 256 0 1014,3
6 San Diego 06-05-2026 01:15 8,6 94 0 0 256 0 1014,2
5 San Diego 06-05-2026 01:00 8,4 94 0 0 326 0 1014,3
4 San Diego 06-05-2026 00:45 8,4 92 0 0 159 0 1014,5
3 San Diego 06-05-2026 00:30 8,6 92 0 0 159 0 1014,6
2 San Diego 06-05-2026 00:15 8,8 91 0 0 159 0 1014,7
1 San Diego 06-05-2026 00:00 9,6 92 0 0 159 0 1014,5